User: anonymous   Login
Location: Pian di Sc�
(43.6333°N, 11.5500°E)
Time: 11:25:00
(UTC+00:00)
Language:

Meteor 1-15 Rocket - Orbit

View from above orbital plane
View from above orbital plane
View from above satellite
View from above satellite

Ground track
Ground track

The orbit data is extracted from the following two-line orbital elements,

1  6660U 73034B   20299.90284122 -.00000010 +00000-0 -13332-4 0  9994
2  6660 081.2298 258.0164 0045874 242.8079 116.8410 14.05851653430484
Epoch (UTC): 25 October 2020 21:40:05
Eccentricity: 0.0045874
inclination: 81.2298°
perigee height: 840 km
apogee height: 907 km
right ascension of ascending node: 258.0164°
argument of perigee: 242.8079°
revolutions per day: 14.05851653
mean anomaly at epoch: 116.8410°
orbit number at epoch: 43048

The dashed part of the orbit path shows where the satellite is in the earth's shadow,  

DLR